Location: Sweet Grass
(48.9965°N, 111.9649°W)
Time: 13:40:41
(UTC+00:00)

Envisat - Pass Details

Date: 06 December 2022
Orbit: 763 x 765 km, 98.2° (Epoch: 06 February)

Event Time Altitude Azimuth Distance (km) Brightness Sun altitude
Rises 12:27:29 0° 9° (N) 3,246 6.3 -25.1°
Reaches altitude 10° 12:29:52 10° 4° (N) 2,315 5.4 -24.7°
Enters shadow 12:31:58 24° 353° (N) 1,560 4.4 -24.4°
